< < Back
Terminal Aerodrome Forecast


Current Version              Previous Versions:   1  2  3  4  5  6  7  8  9  

Terminal Aerodrome Forecast

967
FTUS42 KILM 311700
TAFFLO
TAF
KFLO 311725Z 3118/0118 35005KT P6SM SCT040 SCT250
     FM010600 27005KT P6SM BKN050
     FM011300 30010G18KT P6SM VCSH SCT035 BKN150
      TEMPO 0115/0118 30015G25KT 4SM SHRA BKN030=

Latest METAR

166
SAUS70 KWBC 312000 RRS
MTRFLO
METAR KFLO 311953Z 36004KT 10SM FEW050 19/06 A2980 RMK AO2 SLP087
T01940061


USA.gov is the U.S. government's official web portal to all federal, state and local government web resources and services.